#timestamp,LO_Frequency,Hit,Temp,Hum 
1488632415.5,286047018.2,N,0.0,0.0
1488632435.3,286047018.7,N,0.0,0.0
1488632455.1,286047016.0,N,0.0,0.0
1488632475.8,286047017.6,N,0.0,0.0
1488632495.7,286047021.4,N,0.0,0.0
1488632515.5,286047020.5,N,0.0,0.0
1488632535.3,286047019.5,N,0.0,0.0
1488632555.2,286047017.5,N,0.0,0.0
1488632575.0,286047017.8,N,0.0,0.0
1488632575.9,286047017.8,N,0.0,0.0
1488632595.7,286047018.7,N,0.0,0.0
1488632615.6,286047016.6,N,0.0,0.0
1488632635.4,286047017.4,N,0.0,0.0
1488632655.2,286047021.2,N,0.0,0.0
1488632675.1,286047021.2,N,0.0,0.0
1488632676.0,286047021.2,N,0.0,0.0
1488632695.8,286047023.3,N,0.0,0.0
1488632715.6,286047022.2,N,0.0,0.0
1488632735.5,286047025.1,N,0.0,0.0
1488632755.3,286047022.8,N,0.0,0.0
1488632775.1,286047019.0,N,0.0,0.0
1488632795.9,286047019.1,N,0.0,0.0
1488632815.7,286047022.3,N,0.0,0.0
1488632835.5,286047026.3,N,0.0,0.0
1488632855.4,286047022.2,N,0.0,0.0
1488632875.2,286047025.5,N,0.0,0.0
1488632895.0,286047026.5,N,0.0,0.0
1488632895.9,286047026.5,N,0.0,0.0
1488632915.8,286047023.8,N,0.0,0.0
1488632935.6,286047024.1,N,0.0,0.0
1488632955.4,286047024.5,N,0.0,0.0
1488632975.3,286047026.7,N,0.0,0.0
1488632995.1,286047026.1,N,0.0,0.0
1488632996.0,286047026.1,N,0.0,0.0
1488633015.8,286047024.0,N,0.0,0.0
1488633035.7,286047025.6,N,0.0,0.0
1488633055.5,286047027.9,N,0.0,0.0
1488633075.3,286047027.4,N,0.0,0.0
1488633095.1,286047029.9,N,0.0,0.0
1488633115.9,286047029.1,N,0.0,0.0
1488633135.7,286047027.7,N,0.0,0.0
1488633155.5,286047028.2,N,0.0,0.0
1488633175.4,286047028.5,N,0.0,0.0
1488633195.2,286047030.2,N,0.0,0.0
1488633215.0,286047034.5,Y,0.0,0.0
1488633216.0,286047034.5,Y,0.0,0.0
1488633235.8,286047004.5,N,0.0,0.0
1488633255.6,286047004.5,N,0.0,0.0
1488633275.5,286047004.7,N,0.0,0.0
1488633295.3,286047003.0,N,0.0,0.0
1488633315.1,286047003.3,N,0.0,0.0
1488633335.9,286047004.7,N,0.0,0.0
1488633355.7,286047005.8,N,0.0,0.0
1488633375.5,286047006.0,N,0.0,0.0
1488633395.3,286047005.0,N,0.0,0.0
1488633415.2,286047003.3,N,0.0,0.0
1488633435.0,286047004.4,N,0.0,0.0
1488633435.9,286047004.4,N,0.0,0.0
1488633455.8,286047004.0,N,0.0,0.0
1488633475.6,286047002.7,N,0.0,0.0
1488633495.4,286046999.7,N,0.0,0.0
1488633515.3,286047001.0,N,0.0,0.0
1488633535.1,286046998.1,N,0.0,0.0
1488633536.0,286046998.1,N,0.0,0.0
1488633555.8,286047002.1,N,0.0,0.0
1488633575.7,286047002.4,N,0.0,0.0
1488633595.5,286047001.7,N,0.0,0.0
1488633615.3,286047001.9,N,0.0,0.0
1488633635.2,286047000.2,N,0.0,0.0
1488633655.9,286047004.1,N,0.0,0.0
1488633675.7,286047002.9,N,0.0,0.0
1488633695.5,286047005.4,N,0.0,0.0
1488633715.4,286047003.9,N,0.0,0.0
1488633735.2,286047005.9,N,0.0,0.0
1488633755.0,286047005.4,N,0.0,0.0
1488633755.9,286047005.4,N,0.0,0.0
1488633775.8,286047007.9,N,0.0,0.0
1488633795.6,286047008.9,N,0.0,0.0
1488633815.4,286047010.3,N,0.0,0.0
1488633835.3,286047010.3,N,0.0,0.0
1488633855.2,286047008.4,N,0.0,0.0
1488633875.9,286047011.0,N,0.0,0.0
1488633895.7,286047012.3,N,0.0,0.0
1488633915.6,286047012.4,N,0.0,0.0
1488633935.4,286047013.5,N,0.0,0.0
1488633955.2,286047011.1,N,0.0,0.0
1488633975.1,286047013.1,N,0.0,0.0
1488633976.0,286047013.1,N,0.0,0.0
1488633995.8,286047015.1,N,0.0,0.0
1488634015.6,286047015.5,N,0.0,0.0
1488634035.5,286047014.7,N,0.0,0.0
1488634055.3,286047014.2,N,0.0,0.0
1488634075.1,286047014.1,N,0.0,0.0
1488634095.9,286047012.9,N,0.0,0.0
1488634115.7,286047017.1,N,0.0,0.0
1488634135.5,286047014.4,N,0.0,0.0
1488634155.4,286047016.6,N,0.0,0.0
1488634175.2,286047017.1,N,0.0,0.0
1488634195.0,286047018.0,N,0.0,0.0
1488634195.9,286047018.0,N,0.0,0.0
1488634215.7,286047020.3,N,0.0,0.0
1488634235.6,286047019.0,N,0.0,0.0
1488634255.4,286047019.8,N,0.0,0.0
1488634275.2,286047017.3,N,0.0,0.0
1488634295.1,286047020.3,N,0.0,0.0
1488634296.0,286047020.3,N,0.0,0.0
1488634315.8,286047021.9,N,0.0,0.0
1488634335.6,286047021.6,N,0.0,0.0
1488634355.5,286047018.9,N,0.0,0.0
1488634375.3,286047022.0,N,0.0,0.0
1488634395.1,286047021.2,N,0.0,0.0
1488634415.9,286047019.4,N,0.0,0.0
1488634435.7,286047019.7,N,0.0,0.0
1488634455.5,286047017.3,N,0.0,0.0
1488634475.4,286047017.4,N,0.0,0.0
1488634495.2,286047022.6,N,0.0,0.0
1488634515.0,286047023.4,N,0.0,0.0
1488634515.9,286047023.4,N,0.0,0.0
1488634535.8,286047025.1,N,0.0,0.0
1488634555.6,286047023.4,N,0.0,0.0
1488634575.4,286047022.8,N,0.0,0.0
1488634595.3,286047021.7,N,0.0,0.0
1488634615.1,286047024.8,N,0.0,0.0
1488634616.0,286047024.8,N,0.0,0.0
1488634635.8,286047026.6,N,0.0,0.0
1488634655.7,286047026.2,N,0.0,0.0
1488634675.5,286047025.9,N,0.0,0.0
1488634695.3,286047027.5,N,0.0,0.0
1488634715.2,286047025.5,N,0.0,0.0
1488634735.9,286047020.6,N,0.0,0.0
1488634755.7,286047023.3,N,0.0,0.0
1488634775.5,286047017.8,N,0.0,0.0
1488634795.4,286047023.2,N,0.0,0.0
1488634815.2,286047019.2,N,0.0,0.0
1488634835.0,286047019.8,N,0.0,0.0
1488634836.0,286047019.8,N,0.0,0.0
1488634855.8,286046992.6,N,0.0,0.0
1488634875.6,286047027.9,N,0.0,0.0
1488634895.4,286047020.7,N,0.0,0.0
1488634915.3,286047022.3,N,0.0,0.0
1488634935.1,286047021.7,N,0.0,0.0
1488634955.8,286047021.2,N,0.0,0.0
1488634975.7,286047017.7,N,0.0,0.0
1488634995.5,286047020.3,N,0.0,0.0
1488635015.3,286047018.6,N,0.0,0.0
1488635035.2,286047017.6,N,0.0,0.0
1488635055.9,286047017.3,N,0.0,0.0
1488635075.7,286047019.0,N,0.0,0.0
1488635095.6,286047017.5,N,0.0,0.0
1488635115.4,286047018.1,N,0.0,0.0
1488635135.2,286047017.6,N,0.0,0.0
1488635155.9,286047019.1,N,0.0,0.0
1488635175.7,286047022.0,N,0.0,0.0
1488635195.6,286047023.3,N,0.0,0.0
1488635215.4,286047023.7,N,0.0,0.0
1488635235.2,286047023.7,N,0.0,0.0
1488635255.1,286047028.3,Y,0.0,0.0
1488635256.0,286047028.3,Y,0.0,0.0
1488635275.8,286046999.2,N,0.0,0.0
1488635295.6,286046998.5,N,0.0,0.0
1488635315.5,286046991.0,N,0.0,0.0
1488635335.3,286046993.7,N,0.0,0.0
1488635355.2,286046999.8,N,0.0,0.0
1488635375.9,286047002.2,N,0.0,0.0
1488635395.7,286047005.2,N,0.0,0.0
1488635415.6,286047004.3,N,0.0,0.0
1488635435.4,286047003.4,N,0.0,0.0
1488635455.2,286047001.8,N,0.0,0.0
1488635475.1,286047002.7,N,0.0,0.0
1488635476.0,286047002.7,N,0.0,0.0
1488635495.8,286046997.1,N,0.0,0.0
1488635515.6,286046998.1,N,0.0,0.0
1488635535.5,286046996.8,N,0.0,0.0
1488635555.3,286046998.3,N,0.0,0.0
1488635575.1,286046998.9,N,0.0,0.0
1488635595.9,286046996.6,N,0.0,0.0
1488635615.7,286046997.9,N,0.0,0.0
1488635635.5,286046996.1,N,0.0,0.0
1488635655.3,286046993.8,N,0.0,0.0
1488635675.2,286046991.8,N,0.0,0.0
1488635695.0,286046994.9,N,0.0,0.0
1488635695.9,286046994.9,N,0.0,0.0
1488635715.7,286046993.3,N,0.0,0.0
1488635735.6,286046994.9,N,0.0,0.0
1488635755.4,286047000.9,N,0.0,0.0
1488635775.2,286047000.3,N,0.0,0.0
1488635795.1,286047001.7,N,0.0,0.0
1488635796.0,286047001.7,N,0.0,0.0
1488635815.8,286047003.8,N,0.0,0.0
1488635835.6,286047005.9,N,0.0,0.0
1488635855.5,286047007.5,N,0.0,0.0
1488635875.3,286047007.6,N,0.0,0.0
1488635895.1,286047004.9,N,0.0,0.0
1488635915.9,286047007.1,N,0.0,0.0
1488635935.7,286047010.7,N,0.0,0.0
1488635955.5,286047007.7,N,0.0,0.0
1488635975.4,286047006.5,N,0.0,0.0
1488635995.2,286047008.8,N,0.0,0.0
